DW5078 Weather Reports


time (UTC)temp
C
wind
direction
speed
KPH
gust
KPH
rain 1hr
cm
rain 24hr
cm
rain mn
cm
humidity
%
barometer
mb
20260510040113 23 356 3.2 3.2 0.00 0.00 0.00 78 1004.2
20260510035113 23 357 0.0 3.2 0.00 0.00 0.00 78 1004.5
20260510034113 24 356 1.6 3.2 0.00 0.00 0.00 77 1004.5
20260510033113 24 356 1.6 3.2 0.00 0.00 0.00 77 1004.5
20260510032113 24 356 3.2 6.4 0.00 0.00 0.00 77 1004.5
20260510031113 25 356 4.8 4.8 0.00 0.00 0.00 76 1004.5
20260510030113 25 357 1.6 4.8 0.00 0.00 0.00 75 1004.5
20260510025113 25 357 1.6 3.2 0.00 0.00 0.00 75 1004.4
20260510024113 25 357 1.6 3.2 0.00 0.00 0.00 74 1004.4
20260510023113 25 356 1.6 3.2 0.00 0.00 0.00 74 1004.4
20260510022113 25 356 0.0 3.2 0.00 0.00 0.00 73 1004.4
20260510021113 25 357 0.0 4.8 0.00 0.00 0.00 72 1004.3
20260510020113 25 356 1.6 4.8 0.00 0.00 0.00 71 1004.2
20260510015113 25 357 0.0 3.2 0.00 0.00 0.00 70 1004.0
20260510014113 26 356 1.6 3.2 0.00 0.00 0.00 69 1004.0
20260510013113 26 356 0.0 3.2 0.00 0.00 0.00 68 1003.9
20260510012113 26 357 1.6 4.8 0.00 0.00 0.00 68 1003.7
20260510011113 26 356 1.6 6.4 0.00 0.00 0.00 67 1003.5
20260510010113 26 356 0.0 6.4 0.00 0.00 0.00 65 1003.4
20260510005113 27 356 1.6 6.4 0.00 0.00 0.00 64 1003.4
20260510004113 27 357 3.2 4.8 0.00 0.00 0.00 63 1003.3
20260510003112 27 356 3.2 4.8 0.00 0.00 0.00 62 1003.2
20260510002112 27 356 4.8 6.4 0.00 0.00 0.00 60 1003.2
20260510001112 27 356 0.0 4.8 0.00 0.00 0.00 60 1003.3
20260510000112 28 38 1.6 6.4 0.00 0.00 0.00 62 1003.4
20260509235112 28 38 1.6 6.4 0.00 0.00 0.00 61 1003.4
20260509234112 28 38 1.6 6.4 0.00 0.00 0.00 62 1003.4
20260509233112 28 39 4.8 8.0 0.00 0.00 0.00 62 1003.5
20260509232112 28 38 0.0 6.4 0.00 0.00 0.00 63 1003.5
20260509231112 28 38 0.0 4.8 0.00 0.00 0.00 63 1003.5
20260509230112 28 38 1.6 4.8 0.00 0.00 0.00 63 1003.5
20260509225112 28 38 0.0 6.4 0.00 0.00 0.00 65 1003.5
20260509224112 28 38 1.6 8.0 0.00 0.00 0.00 65 1003.4
20260509223112 28 39 4.8 8.0 0.00 0.00 0.00 65 1003.3
20260509222112 28 38 1.6 4.8 0.00 0.00 0.00 67 1003.3
20260509221112 28 38 3.2 8.0 0.00 0.00 0.00 67 1003.3
20260509220112 28 39 3.2 11.3 0.00 0.00 0.00 66 1003.3
20260509215112 29 38 1.6 8.0 0.00 0.00 0.00 67 1003.4
20260509214112 28 38 1.6 8.0 0.00 0.00 0.00 67 1003.4
20260509213112 28 38 3.2 8.0 0.00 0.00 0.00 67 1003.5
20260509212112 28 38 3.2 9.7 0.00 0.00 0.00 68 1003.7
20260509211112 28 38 3.2 11.3 0.00 0.00 0.00 67 1003.8
20260509210112 29 38 4.8 11.3 0.00 0.00 0.00 68 1003.9
20260509205112 29 38 1.6 8.0 0.00 0.00 0.00 66 1004.1
20260509204112 30 38 3.2 14.5 0.00 0.00 0.00 66 1004.2
20260509203112 30 40 3.2 9.7 0.00 0.00 0.00 64 1004.2
20260509202112 30 40 0.0 6.4 0.00 0.00 0.00 62 1004.2
20260509201112 30 40 1.6 8.0 0.00 0.00 0.00 61 1004.3
20260509200112 31 40 1.6 9.7 0.00 0.00 0.00 60 1004.5
20260509195112 31 40 0.0 1.6 0.00 0.00 0.00 59 1004.6
20260509194112 31 40 0.0 1.6 0.00 0.00 0.00 58 1004.6
20260509193112 31 40 0.0 4.8 0.00 0.00 0.00 59 1004.7
20260509192112 31 40 0.0 0.0 0.00 0.00 0.00 59 1004.8
20260509191112 31 40 0.0 1.6 0.00 0.00 0.00 62 1004.9
20260509190112 31 40 0.0 0.0 0.00 0.00 0.00 64 1005.0
20260509185112 30 40 0.0 3.2 0.00 0.00 0.00 63 1005.0
20260509184112 30 40 0.0 1.6 0.00 0.00 0.00 67 1005.2
20260509183112 31 40 0.0 1.6 0.00 0.00 0.00 63 1005.3
20260509182112 30 40 0.0 1.6 0.00 0.00 0.00 65 1005.3
20260509181112 30 40 0.0 4.8 0.00 0.00 0.00 67 1005.5
20260509180112 30 40 0.0 1.6 0.00 0.00 0.00 67 1005.6
20260509175112 30 40 0.0 1.6 0.00 0.00 0.00 67 1005.8
20260509174112 30 40 0.0 0.0 0.00 0.00 0.00 67 1005.9
20260509173112 29 40 0.0 0.0 0.00 0.00 0.00 69 1006.0
20260509172112 28 40 0.0 1.6 0.00 0.00 0.00 71 1006.1
20260509171112 28 40 0.0 1.6 0.00 0.00 0.00 70 1006.2
20260509170112 28 40 0.0 1.6 0.00 0.00 0.00 72 1006.2
20260509165112 28 40 0.0 0.0 0.00 0.00 0.00 69 1006.2
20260509164112 28 40 0.0 0.0 0.00 0.00 0.00 71 1006.2
20260509163112 27 40 0.0 0.0 0.00 0.00 0.00 73 1006.3
20260509162112 27 40 0.0 0.0 0.00 0.00 0.00 77 1006.2
20260509161111 26 307 0.0 0.0 0.00 0.00 0.00 80 1006.3
20260509160111 25 308 0.0 3.2 0.00 0.00 0.00 81 1006.3
20260509155111 24 308 1.6 3.2 0.00 0.00 0.00 83 1006.3
20260509154111 23 307 1.6 1.6 0.00 0.00 0.00 84 1006.3
20260509153111 23 307 0.0 1.6 0.00 0.00 0.00 85 1006.4
20260509152111 23 307 0.0 1.6 0.00 0.00 0.00 86 1006.3
20260509151111 22 307 0.0 3.2 0.00 0.00 0.00 88 1006.4
20260509150111 22 307 0.0 1.6 0.00 0.00 0.00 89 1006.3
20260509145111 22 308 1.6 3.2 0.00 0.00 0.00 89 1006.4
20260509144111 22 308 1.6 1.6 0.00 0.00 0.00 89 1006.4
20260509143111 22 307 0.0 4.8 0.00 0.00 0.00 89 1006.3
20260509142111 22 307 1.6 4.8 0.00 0.00 0.00 88 1006.1
20260509141111 22 307 0.0 3.2 0.00 0.00 0.00 89 1006.1
20260509140111 22 307 0.0 4.8 0.00 0.00 0.00 91 1006.0
20260509135111 21 308 1.6 3.2 0.00 0.00 0.00 91 1006.0
20260509134111 21 308 0.0 1.6 0.00 0.00 0.00 92 1005.9
20260509133111 21 307 0.0 1.6 0.00 0.00 0.00 93 1005.8
20260509132111 21 307 0.0 1.6 0.00 0.00 0.00 93 1005.7
20260509131111 21 307 3.2 3.2 0.00 0.00 0.00 93 1005.8
20260509130111 21 307 0.0 1.6 0.00 0.00 0.00 93 1005.8
20260509125111 21 308 0.0 1.6 0.00 0.00 0.00 94 1005.6
20260509124111 21 307 0.0 1.6 0.00 0.00 0.00 95 1005.6
20260509123111 20 307 0.0 0.0 0.00 0.00 0.00 96 1005.7
20260509122111 20 308 0.0 0.0 0.00 0.00 0.00 96 1005.6
20260509121111 20 308 0.0 0.0 0.00 0.00 0.00 93 1005.6
20260509120111 20 308 0.0 0.0 0.00 0.00 0.00 93 1005.5
20260509115111 20 308 0.0 0.0 0.00 0.00 0.00 93 1005.4
20260509114111 20 308 0.0 0.0 0.00 0.00 0.00 93 1005.1
20260509113111 20 308 0.0 0.0 0.00 0.00 0.00 93 1005.0
20260509112111 20 308 0.0 0.0 0.00 0.00 0.00 93 1004.7
20260509111111 20 308 0.0 0.0 0.00 0.00 0.00 93 1004.6
20260509110111 20 308 0.0 0.0 0.00 0.00 0.00 93 1004.4
20260509105111 20 308 0.0 0.0 0.00 0.00 0.00 93 1004.3
20260509104111 20 308 0.0 0.0 0.00 0.00 0.00 93 1004.3
20260509103111 20 308 0.0 0.0 0.00 0.00 0.00 93 1004.2
20260509102111 20 308 0.0 0.0 0.00 0.00 0.00 93 1004.2
20260509101111 20 308 0.0 0.0 0.00 0.00 0.00 93 1004.1
20260509100111 20 308 0.0 0.0 0.00 0.00 0.00 93 1004.2
20260509095111 20 308 0.0 0.0 0.00 0.00 0.00 93 1004.0
20260509094111 20 308 0.0 0.0 0.00 0.00 0.00 93 1004.0
20260509093111 20 308 0.0 0.0 0.00 0.00 0.00 93 1004.2
20260509092111 20 307 0.0 0.0 0.00 0.00 0.00 94 1004.1
20260509091111 20 308 0.0 3.2 0.00 0.00 0.00 94 1003.9
20260509090111 21 307 3.2 8.0 0.00 0.00 0.00 93 1002.9
20260509085111 21 307 3.2 9.7 0.00 0.00 0.00 93 1002.7
20260509084111 21 307 3.2 9.7 0.00 0.00 0.00 93 1002.9
20260509083111 21 308 1.6 11.3 0.00 0.00 0.00 93 1003.0
20260509082111 21 308 3.2 8.0 0.00 0.00 0.00 93 1003.4
20260509081111 21 307 4.8 6.4 0.00 0.00 0.00 93 1003.6
20260509080111 21 308 1.6 3.2 0.00 0.00 0.00 92 1004.3
20260509075111 21 307 0.0 4.8 0.00 0.00 0.00 92 1004.6
20260509074111 21 308 1.6 3.2 0.00 0.00 0.00 92 1005.0
20260509073110 21 307 0.0 1.6 0.00 0.00 0.00 92 1005.3
20260509072110 21 307 0.0 1.6 0.00 0.00 0.00 91 1005.5
20260509071110 21 307 0.0 3.2 0.00 0.00 0.00 91 1005.6
20260509070110 21 308 0.0 1.6 0.00 0.00 0.00 92 1005.7
20260509065110 21 308 0.0 1.6 0.00 0.00 0.00 91 1005.8
20260509064110 21 307 0.0 1.6 0.00 0.00 0.00 91 1005.8
20260509063110 21 308 0.0 1.6 0.00 0.00 0.00 90 1005.3
20260509062110 21 308 0.0 1.6 0.00 0.00 0.00 90 1005.3
20260509061110 21 308 0.0 1.6 0.00 0.00 0.00 90 1005.5
20260509060110 21 308 0.0 3.2 0.00 0.00 0.00 89 1005.3
20260509055110 21 308 0.0 1.6 0.00 0.00 0.00 88 1005.4
20260509054110 21 308 0.0 1.6 0.00 0.00 0.00 88 1006.1
20260509053110 21 307 0.0 0.0 0.00 0.00 0.00 87 1006.3
20260509052110 21 308 0.0 1.6 0.00 0.00 0.00 87 1006.1
20260509051110 21 308 0.0 1.6 0.00 0.00 0.00 88 1006.8
20260509050110 21 308 0.0 1.6 0.00 0.00 0.00 87 1007.1
20260509045110 21 307 0.0 1.6 0.00 0.00 0.00 86 1005.8
20260509044110 21 307 0.0 1.6 0.00 0.00 0.00 86 1005.3
20260509043110 21 308 0.0 3.2 0.00 0.00 0.00 85 1005.4
20260509042110 21 308 0.0 8.0 0.00 0.00 0.00 85 1005.1
20260509041110 21 308 4.8 4.8 0.00 0.00 0.00 85 1005.4